Date String (YYYY-MM-DD hh:mm:ss) UTC,Instrument flags,Ambient pressure (hPa),Sample flow (lpm),Bypass flow (lpm),Sample temperature (°C),Ambient temperature (°C),ASC tube jacket temperature (°C),LED temperature (°C),Box temperature (°C),Sample RH (%),Span deviation,Mass concentration (μg/m³),Mass concentration (μg/m³),Mass concentration (μg/m³)
DateTimeUTC,F1_M11,P_M11,Q1_M11,Q2_M11,T1_M11,T2_M11,T3_M11,T4_M11,T5_M11,U1_M11,ZSPAN_M11,X0_M11,X2_M11,X1_M11
2022-08-17 05:00:00,,0831.4,5.00,0.00,29.7,28.5,00.0,38.4,31.6,28.5,0000.0,0008.61,0004.79,0004.24
2022-08-17 05:01:00,,0831.5,4.99,0.00,29.7,28.6,00.0,38.4,31.6,28.7,0000.0,0008.52,0004.77,0004.24
2022-08-17 05:02:00,,0831.4,5.00,0.00,29.7,28.6,00.0,38.4,31.6,28.6,0000.0,0008.66,0004.78,0004.25
2022-08-17 05:03:00,,0831.4,5.00,0.00,29.7,28.7,00.0,38.5,31.7,28.5,0000.0,0008.05,0004.76,0004.26
2022-08-17 05:04:00,,0831.4,4.99,0.00,29.7,28.7,00.0,38.5,31.7,28.5,0000.0,0008.07,0004.75,0004.26
2022-08-17 05:05:00,,0831.5,5.02,0.00,29.8,28.8,00.0,38.5,31.7,28.5,0000.0,0008.53,0004.77,0004.26
2022-08-17 05:06:00,,0831.5,5.00,0.00,29.8,28.8,00.0,38.5,31.7,28.4,0000.0,0009.00,0004.77,0004.26
2022-08-17 05:07:00,,0831.5,5.00,0.00,29.8,28.8,00.0,38.5,31.8,28.2,0000.0,0009.37,0004.76,0004.25
2022-08-17 05:08:00,,0831.5,5.00,0.00,29.8,28.9,00.0,38.5,31.8,28.0,0000.0,0009.54,0004.78,0004.25
2022-08-17 05:09:00,,0831.5,5.00,0.00,29.9,28.9,00.0,38.6,31.8,27.9,0000.0,0009.57,0004.75,0004.24
2022-08-17 05:10:00,,0831.4,4.99,0.00,29.9,28.9,00.0,38.6,31.8,27.8,0000.0,0009.55,0004.72,0004.23
2022-08-17 05:11:00,,0831.4,5.01,0.00,29.9,28.9,00.0,38.6,31.8,27.7,0000.0,0009.67,0004.72,0004.23
2022-08-17 05:12:00,,0831.4,5.00,0.00,29.9,28.4,00.0,38.5,31.7,27.8,0000.0,0009.79,0004.74,0004.22
2022-08-17 05:13:00,,0831.4,5.00,0.00,29.8,27.6,00.0,38.5,31.4,28.0,0000.0,0009.80,0004.75,0004.22
2022-08-17 05:14:00,,0831.4,5.00,0.00,29.7,27.1,00.0,38.4,31.3,28.1,0000.0,0009.88,0004.74,0004.22
2022-08-17 05:15:00,,0831.4,5.00,0.00,29.6,27.0,00.0,38.4,31.1,28.3,0000.0,0009.74,0004.73,0004.22
2022-08-17 05:16:00,,0831.4,5.00,0.00,29.5,27.1,00.0,38.4,31.1,28.4,0000.0,0009.29,0004.72,0004.22
2022-08-17 05:17:00,,0831.4,5.00,0.00,29.5,27.2,00.0,38.4,31.1,28.5,0000.0,0008.80,0004.73,0004.21
2022-08-17 05:18:00,,0831.5,5.00,0.00,29.4,27.4,00.0,38.3,31.2,28.7,0000.0,0008.45,0004.74,0004.22
2022-08-17 05:19:00,,0831.5,4.98,0.00,29.4,27.6,00.0,38.3,31.2,28.5,0000.0,0008.52,0004.73,0004.21
2022-08-17 05:20:00,,0831.4,5.00,0.00,29.4,27.7,00.0,38.3,31.2,28.9,0000.0,0008.48,0004.74,0004.22
2022-08-17 05:21:00,,0831.4,5.01,0.00,29.4,27.8,00.0,38.3,31.3,28.9,0000.0,0008.43,0004.77,0004.23
2022-08-17 05:22:00,,0831.4,5.00,0.00,29.5,28.0,00.0,38.3,31.3,28.6,0000.0,0008.36,0004.79,0004.24
2022-08-17 05:23:00,,0831.4,5.00,0.00,29.5,28.1,00.0,38.3,31.3,28.3,0000.0,0008.33,0004.77,0004.24
2022-08-17 05:24:00,,0831.5,4.99,0.00,29.5,28.2,00.0,38.3,31.3,28.7,0000.0,0009.05,0004.72,0004.23
2022-08-17 05:25:00,,0831.4,5.00,0.00,29.5,28.3,00.0,38.3,31.4,28.5,0000.0,0009.46,0004.74,0004.23
2022-08-17 05:26:00,,0831.4,5.00,0.00,29.5,28.3,00.0,38.3,31.4,28.5,0000.0,0009.83,0004.76,0004.22
2022-08-17 05:27:00,,0831.5,5.00,0.00,29.5,28.4,00.0,38.3,31.4,28.6,0000.0,0010.14,0004.76,0004.22
2022-08-17 05:28:00,,0831.5,4.99,0.00,29.6,28.4,00.0,38.3,31.5,28.6,0000.0,0010.14,0004.74,0004.23
2022-08-17 05:29:00,,0831.5,5.00,0.00,29.6,28.5,00.0,38.3,31.5,28.6,0000.0,0010.23,0004.74,0004.22
2022-08-17 05:30:00,,0831.5,5.00,0.00,29.6,28.6,00.0,38.3,31.5,28.5,0000.0,0010.08,0004.78,0004.22
2022-08-17 05:31:00,,0831.5,5.01,0.00,29.6,28.6,00.0,38.4,31.6,28.5,0000.0,0010.19,0004.83,0004.22
2022-08-17 05:32:00,,0831.5,4.99,0.00,29.7,28.6,00.0,38.4,31.6,28.5,0000.0,0010.24,0004.83,0004.23
2022-08-17 05:33:00,,0831.6,5.00,0.00,29.7,28.7,00.0,38.4,31.6,28.3,0000.0,0010.14,0004.80,0004.22
2022-08-17 05:34:00,,0831.6,5.00,0.00,29.7,28.7,00.0,38.4,31.7,28.4,0000.0,0009.99,0004.78,0004.22
2022-08-17 05:35:00,,0831.5,5.00,0.00,29.7,28.7,00.0,38.4,31.7,28.2,0000.0,0009.10,0004.81,0004.22
2022-08-17 05:36:00,,0831.5,5.01,0.00,29.8,28.8,00.0,38.4,31.7,28.3,0000.0,0008.89,0004.83,0004.22
2022-08-17 05:37:00,,0831.5,5.00,0.00,29.8,28.8,00.0,38.5,31.7,28.6,0000.0,0008.72,0004.85,0004.22
2022-08-17 05:38:00,,0831.5,4.99,0.00,29.8,28.8,00.0,38.5,31.7,28.5,0000.0,0008.44,0004.85,0004.23
2022-08-17 05:39:00,,0831.5,5.00,0.00,29.8,28.9,00.0,38.5,31.7,28.3,0000.0,0008.46,0004.87,0004.23
2022-08-17 05:40:00,,0831.5,5.01,0.00,29.8,28.9,00.0,38.5,31.8,28.3,0000.0,0008.67,0004.89,0004.25
2022-08-17 05:41:00,,0831.5,5.01,0.00,29.9,28.9,00.0,38.5,31.8,28.3,0000.0,0008.66,0004.86,0004.26
2022-08-17 05:42:00,,0831.5,5.00,0.00,29.9,28.9,00.0,38.6,31.8,28.1,0000.0,0008.59,0004.83,0004.27
2022-08-17 05:43:00,,0831.6,5.00,0.00,29.9,29.0,00.0,38.6,31.8,27.9,0000.0,0008.53,0004.81,0004.27
2022-08-17 05:44:00,,0831.5,5.00,0.00,29.9,28.8,00.0,38.6,31.8,27.8,0000.0,0008.62,0004.83,0004.27
2022-08-17 05:45:00,,0831.6,4.99,0.00,29.9,28.1,00.0,38.5,31.6,28.1,0000.0,0008.82,0004.87,0004.28
2022-08-17 05:46:00,,0831.5,5.01,0.00,29.8,27.7,00.0,38.5,31.5,28.0,0000.0,0009.50,0004.87,0004.28
2022-08-17 05:47:00,,0831.5,4.99,0.00,29.7,27.6,00.0,38.5,31.4,28.0,0000.0,0009.86,0004.86,0004.28
2022-08-17 05:48:00,,0831.5,5.01,0.00,29.7,27.6,00.0,38.5,31.4,28.0,0000.0,0009.64,0004.83,0004.27
2022-08-17 05:49:00,,0831.5,4.99,0.00,29.6,27.7,00.0,38.5,31.4,28.0,0000.0,0009.70,0004.81,0004.26
2022-08-17 05:50:00,,0831.5,5.00,0.00,29.6,27.8,00.0,38.5,31.4,28.3,0000.0,0009.62,0004.77,0004.23
2022-08-17 05:51:00,,0831.5,5.00,0.00,29.6,27.9,00.0,38.4,31.4,28.4,0000.0,0009.34,0004.72,0004.20
2022-08-17 05:52:00,,0831.6,5.01,0.00,29.6,28.1,00.0,38.4,31.4,28.3,0000.0,0009.12,0004.71,0004.18
2022-08-17 05:53:00,,0831.5,4.99,0.00,29.6,28.2,00.0,38.4,31.4,28.4,0000.0,0009.11,0004.68,0004.15
2022-08-17 05:54:00,,0831.6,5.01,0.00,29.6,28.3,00.0,38.4,31.5,28.3,0000.0,0009.21,0004.68,0004.15
2022-08-17 05:55:00,,0831.6,5.00,0.00,29.6,28.3,00.0,38.4,31.5,28.3,0000.0,0009.19,0004.67,0004.14
2022-08-17 05:56:00,,0831.6,4.99,0.00,29.7,28.4,00.0,38.4,31.6,28.2,0000.0,0009.04,0004.65,0004.12
2022-08-17 05:57:00,,0831.6,5.00,0.00,29.7,28.5,00.0,38.4,31.5,28.3,0000.0,0008.53,0004.60,0004.11
2022-08-17 05:58:00,,0831.6,5.01,0.00,29.7,28.5,00.0,38.5,31.6,28.4,0000.0,0008.07,0004.60,0004.10
2022-08-17 05:59:00,,0831.6,5.01,0.00,29.7,28.6,00.0,38.5,31.6,28.3,0000.0,0007.92,0004.58,0004.09
